COSMOS 1275 DEB, 15780

Orbit data source: Space-Track

COSMOS 1275 DEB, 15780 is space debris in LEO originally from a launch on Thu, 04 Jun 1981 UTC launched from the Plesetsk Missile And Space Complex (PKMTR). Debris objects in space refer to the collection of defunct objects orbiting the Earth. Examples of debris include non-operational satellites, rocket bodies, and fragments generated from explosions, collisions, or faulty payload assembly.

Loading next visibility...
Identifier
15780, 1981-053KE
Orbit
LEO
Country
Flag of CISCIS
Related business
Manufacturer
Unknown
Mission
Spacecraft
Bus & Motor
Unknown
Mass
Unknown
Launch date (UTC)
1981-06-04 (45 years ago)
Launch vehicle
Unknown
Launch site
Plesetsk Missile And Space Complex (PKMTR)
Object type
Payload
Rocket body
Debris
Shape & HBR
Unknown shape, 0.1 m
Radar Cross Section
Small (<0.1 m²)

Expand to show TLE details & history
Last TLE update: 19 hours ago

TLE from 19 hours ago
0 COSMOS 1275 DEB
1 15780U 81053KE  26036.85531087  .00001813  00000-0  12922-2 0  9993
2 15780  82.8177 353.4957 0051624 159.2620 220.7116 13.96251724 61900
Epoch: 2026-02-05T20:31Z
TLE epoch observation values (Epoch: 2026-02-05T20:31:38.859Z)
Latitude
19.42923°
Longitude
-87.88346°
Altitude
937.869 km
Speed
7.37 km/s
True Right ascension
23h 44m 07s
True Declination
19° 19' 27"
Sunlit
Object was in daylight at epoch
Visualization orbit readout
Latitude
Unknown
Longitude
Unknown
Altitude
Unknown
Speed
Unknown
Apparent Right ascension
Unknown
Apparent Declination
Unknown
Sunlit
N/A
Visualization observer readout
Local Sidereal Time
17:28:53
Azimuth
Unknown
Elevation
Unknown
Doppler factor
Unknown
Orbital elements
Apogee altitude
941.521 km
Perigee altitude
866.335 km
Semi-major axis
7,282.065 km
Eccentricity
0.00516
Inclination
82.8177°
RAAN
353.4957°
Arg. of periapsis
159.262°
True anomaly
220.32763°
Mean anomaly
220.7116°
Eccentric anomaly
220.51943°
Mean motion
3.4927 °/min
Orbital period
103.07 mins
BSTAR
0.0012922
Loading maneuver chart data...
Computing Atmospheric mass density...
Loading historical data...
Loading historical data...
Loading historical data...
Loading historical data...
Loading historical data...
Loading historical data...
Loading historical data...

Documentation

Showing up to 5 results
|